Погода в Триполи

Греция     37°30′36″N   22°22′20″E
темп.,
°C
ветер,
м/с
пор.,
м/с
влажн.,
%
обл.,
%
осадки,
мм/ч
давл.,
гПа
погр.,
м
9 марта, вт
вт923:00+6в1192100 0.8 101522
02:00+6всв2295100 0.8 101472
05:00+5всв339798 0.1 1013133
08:00+6всв359698 0.1 1014288
11:00+9всв347995 0.0 1014637
14:00+11всв347190 0.1 1013772
17:00+10всв237569 0.0 1013641
20:00+6всв229568 0.1 101435
10 марта, ср
ср1023:00+5всв2296100 0.0 101531
02:00+5св1194100 0.0 101422
05:00+5ссз128698 0.0 101322
08:00+7сз118271 0.0 101359
11:00+12зсз57560 0.0 10131302
14:00+13зсз67612 0.1 10121372
17:00+10з587439 0.3 10121000
20:00+6з349636 0.3 1013218
11 марта, чт
чт1123:00+7зюз369599 0.3 1013451
02:00+7зюз379790 0.8 1012432
05:00+6з4996100 1.6 1011729
08:00+6з359384 2.3 1012385
11:00+9зсз586415 0.0 10151171
14:00+10зсз67558 0.1 10161371
17:00+6всв238432 1.4 1018532
20:00+3всв239260 1.6 1021190
12 марта, пт
пт1223:00+1всв229523 0.0 102430
02:00+1всв229626 0.0 102435
05:000ссв119550 0.0 102422
08:00+3зюз118654 0.0 102596
11:00+9з236763 0.0 1025783
14:00+12зюз665834 0.0 10231171
17:00+8з457853 0.1 1022737
20:00+4з229644 0.1 102226
13 марта, сб
сб1323:00+3сз119538 0.0 102223
02:00+3ссз117720 0.0 102122
05:00+2з127161 0.0 101922
08:00+6зсз116043 0.0 102060
11:00+12зюз344441 0.0 1020531
14:00+13з445170 0.0 1019700
17:00+11зсз1262100 0.0 1017354
20:00+8всв1281100 0.0 101729